When you browse on this site, cookies collect data to enhance your experience and personalize the content and advertising you see.
Visit our Privacy Policy to learn more. By continuing to use the site, you agree to this use of cookies and data.
  • în România
  • Lista ţărilor
  • Pe 7 zile
  • Temperatura apei
  • Meteo pe hartă
  • Widget-uri
  • user-avatar
    Intrare

    Meteo pe oră la Prägraten

    Astăzi, 12 Decembrie, Joi

    Timp Temperatura Precipitaţii Vânt Presiune Umiditate
    00:00 -10°C° 0 mm 1 m/s 566 mmHg 45%
    01:00 -13°C° 0 mm 2 m/s 565 mmHg 48%
    02:00 -13°C° 0 mm 2 m/s 565 mmHg 51%
    03:00 -13°C° 0 mm 2 m/s 564 mmHg 55%
    04:00 -14°C° 0 mm 2 m/s 564 mmHg 59%
    05:00 -14°C° 0.1 mm 2 m/s 564 mmHg 67%
    06:00 -14°C° 0.1 mm 2 m/s 564 mmHg 76%
    07:00 -14°C° 0.1 mm 2 m/s 564 mmHg 84%
    08:00 -13°C° 0.1 mm 2 m/s 565 mmHg 85%
    09:00 -12°C° 0.1 mm 2 m/s 565 mmHg 86%
    10:00 -10°C° 0.1 mm 2 m/s 565 mmHg 87%
    11:00 -9°C° 0 mm 2 m/s 565 mmHg 85%
    12:00 -9°C° 0 mm 2 m/s 566 mmHg 83%
    13:00 -8°C° 0 mm 2 m/s 566 mmHg 82%
    14:00 -8°C° 0.1 mm 1 m/s 565 mmHg 85%
    15:00 -9°C° 0.1 mm 1 m/s 565 mmHg 88%
    16:00 -9°C° 0.1 mm 1 m/s 564 mmHg 91%
    17:00 -10°C° 0 mm 1 m/s 564 mmHg 91%
    18:00 -11°C° 0 mm 1 m/s 563 mmHg 92%
    19:00 -11°C° 0 mm 1 m/s 563 mmHg 92%
    20:00 -12°C° 0 mm 1 m/s 562 mmHg 90%
    21:00 -13°C° 0 mm 1 m/s 561 mmHg 88%
    22:00 -13°C° 0 mm 1 m/s 560 mmHg 86%
    23:00 -15°C° 0 mm 2 m/s 560 mmHg 87%

    Mâine, 13 Decembrie, Vineri

    Timp Temperatura Precipitaţii Vânt Presiune Umiditate
    00:00 -15°C° 0 mm 2 m/s 559 mmHg 88%
    01:00 -15°C° 0 mm 2 m/s 559 mmHg 89%
    02:00 -16°C° 0 mm 3 m/s 558 mmHg 89%
    03:00 -16°C° 0 mm 3 m/s 557 mmHg 89%
    04:00 -16°C° 0 mm 3 m/s 557 mmHg 89%
    05:00 -16°C° 0 mm 3 m/s 556 mmHg 89%
    06:00 -17°C° 0 mm 4 m/s 556 mmHg 89%
    07:00 -17°C° 0 mm 4 m/s 555 mmHg 88%
    08:00 -16°C° 0 mm 4 m/s 555 mmHg 87%
    09:00 -15°C° 0 mm 4 m/s 555 mmHg 86%
    10:00 -15°C° 0 mm 4 m/s 555 mmHg 85%
    11:00 -13°C° 0.1 mm 3 m/s 556 mmHg 85%
    12:00 -12°C° 0.1 mm 2 m/s 556 mmHg 85%
    13:00 -10°C° 0.1 mm 2 m/s 556 mmHg 84%
    14:00 -10°C° 0.5 mm 2 m/s 556 mmHg 87%
    15:00 -9°C° 0.5 mm 1 m/s 556 mmHg 89%
    16:00 -9°C° 0.5 mm 1 m/s 556 mmHg 92%
    17:00 -9°C° 0.2 mm 1 m/s 556 mmHg 89%
    18:00 -12°C° 0.2 mm 2 m/s 557 mmHg 87%
    19:00 -12°C° 0.2 mm 2 m/s 557 mmHg 84%
    20:00 -12°C° 0 mm 2 m/s 557 mmHg 82%
    21:00 -12°C° 0 mm 2 m/s 558 mmHg 79%
    22:00 -14°C° 0 mm 3 m/s 558 mmHg 77%
    23:00 -13°C° 0.1 mm 2 m/s 559 mmHg 81%

    Poimâine, 14 Decembrie, Sâmbătă

    Timp Temperatura Precipitaţii Vânt Presiune Umiditate
    00:00 -13°C° 0.1 mm 2 m/s 559 mmHg 85%
    01:00 -13°C° 0.1 mm 2 m/s 560 mmHg 89%
    02:00 -14°C° 0 mm 2 m/s 560 mmHg 90%
    03:00 -14°C° 0 mm 2 m/s 560 mmHg 90%
    04:00 -15°C° 0 mm 2 m/s 561 mmHg 90%
    05:00 -15°C° 0 mm 2 m/s 561 mmHg 83%
    06:00 -15°C° 0 mm 2 m/s 561 mmHg 76%
    07:00 -13°C° 0 mm 1 m/s 562 mmHg 69%
    08:00 -11°C° 0 mm 1 m/s 563 mmHg 67%
    09:00 -9°C° 0 mm 1 m/s 565 mmHg 65%
    10:00 -7°C° 0 mm 1 m/s 566 mmHg 63%
    11:00 -6°C° 0 mm 1 m/s 567 mmHg 65%
    12:00 -4°C° 0 mm 1 m/s 567 mmHg 67%
    13:00 -3°C° 0 mm 1 m/s 568 mmHg 69%
    14:00 -4°C° 0 mm 1 m/s 568 mmHg 70%
    15:00 -4°C° 0 mm 1 m/s 568 mmHg 72%
    16:00 -6°C° 0 mm 1 m/s 567 mmHg 73%
    17:00 -7°C° 0 mm 1 m/s 568 mmHg 72%
    18:00 -7°C° 0 mm 1 m/s 568 mmHg 71%
    19:00 -7°C° 0 mm 1 m/s 568 mmHg 69%
    20:00 -8°C° 0 mm 2 m/s 569 mmHg 67%
    21:00 -8°C° 0 mm 2 m/s 569 mmHg 65%
    22:00 -8°C° 0 mm 2 m/s 569 mmHg 63%
    23:00 -8°C° 0 mm 2 m/s 569 mmHg 63%

    15 Decembrie, Duminică

    Timp Temperatura Precipitaţii Vânt Presiune Umiditate
    00:00 -8°C° 0 mm 2 m/s 569 mmHg 63%
    01:00 -8°C° 0 mm 2 m/s 570 mmHg 63%
    02:00 -8°C° 0 mm 2 m/s 569 mmHg 64%
    03:00 -8°C° 0 mm 2 m/s 569 mmHg 64%
    04:00 -8°C° 0 mm 2 m/s 569 mmHg 65%
    05:00 -9°C° 0 mm 2 m/s 569 mmHg 66%
    06:00 -9°C° 0 mm 2 m/s 569 mmHg 67%
    07:00 -9°C° 0 mm 2 m/s 569 mmHg 67%
    08:00 -8°C° 0 mm 2 m/s 570 mmHg 68%
    09:00 -7°C° 0 mm 2 m/s 571 mmHg 68%
    10:00 -6°C° 0 mm 2 m/s 572 mmHg 69%
    11:00 -5°C° 0 mm 2 m/s 572 mmHg 70%
    12:00 -2°C° 0 mm 1 m/s 573 mmHg 71%
    13:00 -1°C° 0 mm 1 m/s 573 mmHg 71%
    14:00 -2°C° 0 mm 1 m/s 573 mmHg 72%
    15:00 -4°C° 0 mm 1 m/s 572 mmHg 72%
    16:00 -6°C° 0 mm 0 m/s 572 mmHg 73%
    17:00 -6°C° 0 mm 0 m/s 572 mmHg 72%
    18:00 -7°C° 0 mm 0 m/s 572 mmHg 70%
    19:00 -8°C° 0 mm 0 m/s 573 mmHg 69%
    20:00 -8°C° 0 mm 0 m/s 573 mmHg 69%
    21:00 -8°C° 0 mm 1 m/s 573 mmHg 70%
    22:00 -8°C° 0 mm 1 m/s 573 mmHg 70%
    23:00 -8°C° 0 mm 1 m/s 573 mmHg 73%

    16 Decembrie, Luni

    Timp Temperatura Precipitaţii Vânt Presiune Umiditate
    00:00 -9°C° 0 mm 2 m/s 573 mmHg 76%
    01:00 -10°C° 0 mm 2 m/s 573 mmHg 79%
    02:00 -10°C° 0 mm 2 m/s 573 mmHg 81%
    03:00 -10°C° 0 mm 2 m/s 573 mmHg 82%
    04:00 -10°C° 0 mm 2 m/s 573 mmHg 84%
    05:00 -10°C° 0 mm 2 m/s 573 mmHg 84%
    06:00 -12°C° 0 mm 3 m/s 573 mmHg 83%
    07:00 -12°C° 0 mm 3 m/s 573 mmHg 83%
    08:00 -10°C° 0 mm 3 m/s 573 mmHg 84%
    09:00 -9°C° 0 mm 3 m/s 574 mmHg 84%
    10:00 -9°C° 0 mm 4 m/s 574 mmHg 84%
    11:00 -8°C° 0 mm 4 m/s 575 mmHg 85%
    12:00 -7°C° 0 mm 4 m/s 575 mmHg 86%
    13:00 -5°C° 0 mm 4 m/s 575 mmHg 87%
    14:00 -7°C° 0 mm 4 m/s 574 mmHg 89%
    15:00 -7°C° 0 mm 4 m/s 574 mmHg 90%
    16:00 -7°C° 0 mm 4 m/s 574 mmHg 91%
    17:00 -7°C° 0 mm 4 m/s 574 mmHg 91%
    18:00 -7°C° 0 mm 4 m/s 574 mmHg 91%
    19:00 -7°C° 0 mm 4 m/s 574 mmHg 92%
    20:00 -7°C° 0 mm 4 m/s 574 mmHg 92%
    21:00 -8°C° 0 mm 4 m/s 574 mmHg 91%
    22:00 -8°C° 0 mm 4 m/s 574 mmHg 91%
    23:00 -7°C° 0 mm 4 m/s 574 mmHg 91%

    17 Decembrie, Marţi

    Timp Temperatura Precipitaţii Vânt Presiune Umiditate
    00:00 -7°C° 0 mm 4 m/s 574 mmHg 92%
    01:00 -7°C° 0 mm 4 m/s 574 mmHg 92%
    02:00 -7°C° 0 mm 4 m/s 574 mmHg 91%
    03:00 -7°C° 0 mm 4 m/s 574 mmHg 91%
    04:00 -7°C° 0 mm 4 m/s 574 mmHg 91%
    05:00 -5°C° 0 mm 4 m/s 574 mmHg 91%
    06:00 -5°C° 0 mm 4 m/s 574 mmHg 92%
    07:00 -5°C° 0 mm 4 m/s 574 mmHg 92%
    08:00 -5°C° 0 mm 4 m/s 574 mmHg 92%
    09:00 -4°C° 0 mm 4 m/s 575 mmHg 92%
    10:00 -4°C° 0 mm 3 m/s 575 mmHg 92%
    11:00 -2°C° 0.1 mm 3 m/s 575 mmHg 93%
    12:00 -2°C° 0.1 mm 3 m/s 575 mmHg 93%
    13:00 -2°C° 0.1 mm 3 m/s 575 mmHg 94%
    14:00 -2°C° 0.1 mm 3 m/s 575 mmHg 94%
    15:00 -2°C° 0.1 mm 3 m/s 575 mmHg 95%
    16:00 -2°C° 0.1 mm 3 m/s 575 mmHg 95%
    17:00 -2°C° 0.2 mm 3 m/s 575 mmHg 95%
    18:00 -2°C° 0.2 mm 3 m/s 575 mmHg 95%
    19:00 -4°C° 0.2 mm 3 m/s 575 mmHg 95%
    20:00 -4°C° 0.3 mm 3 m/s 576 mmHg 95%
    21:00 -4°C° 0.3 mm 3 m/s 576 mmHg 95%
    22:00 -4°C° 0.3 mm 3 m/s 576 mmHg 95%
    23:00 -4°C° 0.5 mm 3 m/s 576 mmHg 96%
    Arată mai mult